Location: Asheville, NC
(35.6000°N, 82.5500°W)
Time: 07:56:54
(UTC-04:00)

Vanguard 2 - Pass Details

Date: 16 February 2018
Orbit: 552 x 2940 km, 32.9° (Epoch: 22 May)

Event Time Altitude Azimuth Distance (km) Brightness Sun altitude
Rises 23:07:35 0° 274° (W) 3,282 - -57.9°
Reaches altitude 10° 23:10:27 10° 267° (W) 2,122 - -58.3°
Maximum altitude 23:14:46 40° 197° (SSW) 854 - -58.9°
Drops below altitude 10° 23:18:27 10° 126° (SE) 1,812 - -59.5°
Sets 23:20:43 0° 119° (ESE) 2,733 - -59.8°
